Regional Weather Roundup
Issued by NWS

Home | Current Version | Previous Version | Graphics & Text | Print | Product List | Glossary On
Versions: 1 2 3 4 5 6 7 8 9 10 11 12 13 14 15 16 17 18 19 20 21 22 23 24 25 26 27 28 29 30 31 32 33 34 35 36 37 38 39 40 41 42 43 44 45 46 47 48 49 50
994
ASUS45 KBOU 250207
RWRCO

WEATHER ROUNDUP FOR COLORADO
NATIONAL WEATHER SERVICE DENVER/BOULDER CO
800 PM MDT MON JUL 24 2017

NOTE: "FAIR" INDICATES FEW OR NO CLOUDS BELOW 12000 FEET WITH NO
SIGNIFICANT WEATHER AND/OR OBSTRUCTIONS TO VISIBILITY.

COZ001>005-013-030-031-250300-
...NORTHWEST COLORADO...

CITY           SKY/WX    TMP DP  RH WIND       PRES   REMARKS
CRAIG          FAIR      77  48  35 SW6       30.09R
HAYDEN         FAIR     N/A N/A N/A NE5       30.12R
MEEKER         FAIR      81  48  31 SW6       30.11R
RABBIT EARS PA FAIR      63  37  39 NW8       30.49R
STEAMBOAT SPGS FAIR      78  46  31 CALM      30.14R
WALDEN         FAIR      75  34  22 E10       30.27S
$$

COZ006>008-011-250300-
...WEST CENTRAL VALLEYS...

CITY           SKY/WX    TMP DP  RH WIND       PRES   REMARKS
GRAND JUNCTION FAIR      90  50  25 S13G20    29.97R
MONTROSE       FAIR      78  55  44 SE7       30.09R
EAGLE          FAIR      84  45  25 W3        30.13R
RIFLE          FAIR      86  46  24 NW6       30.02R
DELTA          FAIR      88  48  25 W12       30.04R
NUCLA          NOT AVBL
$$

COZ017>023-064>068-250300-
...SOUTHWEST COLORADO...

CITY           SKY/WX    TMP DP  RH WIND       PRES   REMARKS
DURANGO        RAIN      62  60  93 SE8       30.26R FOG
CORTEZ         MOCLDY    80  53  39 S9        30.12R
PAGOSA SPRINGS FAIR      68  50  53 SW5       30.33R
TELLURIDE      CLOUDY    64  51  62 CALM      30.42R
WOLF CREEK PAS FAIR      50  43  76 SW13      30.67S
$$

COZ009-010-012-014-032>034-037-058>063-250300-
...CENTRAL COLORADO...

CITY           SKY/WX    TMP DP  RH WIND       PRES   REMARKS
ASPEN          CLOUDY    70  46  42 S20G28    30.29R
BUENA VISTA    CLOUDY    72  41  32 NE8       30.32R
COPPER MTN     MOCLDY    59  32  36 SE18      30.62R
BERTHOUD PASS  FAIR      50  36  57 SE12      30.67S
COTTONWOOD PAS CLOUDY    66  36  32 E6        30.48R
GUNNISON       FAIR      67  48  50 N12       30.29R
KREMMLING      FAIR      81  36  19 SW12      30.20R
LEADVILLE      LGT RAIN  62  40  44 SE9       30.41R
SALIDA         MOCLDY    76  42  28 SE15G21   30.34R
SUNLIGHT       CLOUDY    61  37  41 E3        30.53R
WILKERSON PASS CLOUDY    54  37  54 SW5       30.62R
$$

COZ069>075-250300-
...SAN LUIS VALLEY/SANGRE DE CRISTO MOUNTAINS...

CITY           SKY/WX    TMP DP  RH WIND       PRES   REMARKS
ALAMOSA        FAIR      68  50  52 SE9       30.27R
DEL NORTE      FAIR      69  47  44 W10       30.30S
LA VETA PASS   NOT AVBL
SAGUACHE         N/A    N/A N/A N/A MISG        N/A
$$

COZ035-036-038>040-250300-
...NORTHERN COLORADO FRONT RANGE...

CITY           SKY/WX    TMP DP  RH WIND       PRES   REMARKS
DENVER INTL AP MOCLDY    87  42  20 S17       30.03R
DMNS CITY PARK   N/A     85  46  25 S3        30.03R
AURORA         MOCLDY    84  47  27 S10       30.06R
FRONT RANGE AP FAIR      86  39  19 SW10      30.05S
ERIE MUNI ARPT FAIR      86  42  21 SE3       30.00R
BOULDER MUN AP FAIR      88  45  22 CALM      30.01R
CENTENNIAL     MOCLDY    83  42  23 S8        30.08R
BROOMFIELD     FAIR      88  37  16 CALM      30.05S
FORT COLLINS   FAIR      88  47  24 NE6       29.99S
LONGMONT       FAIR      85  57  38 NE7       30.00S
$$

COZ041-046-047-076>085-087-088-250300-
...PIKES PEAK/PALMER DIVIDE AND SOUTHERN FOOTHILLS...

CITY           SKY/WX    TMP DP  RH WIND       PRES   REMARKS
COLO. SPRINGS  MOCLDY    78  47  33 SW13      30.15R
A. F. ACADEMY  FAIR      75  44  33 S5        30.15S
SCHRIEVER AFB  FAIR      77  45  32 SW13G21   30.15R
CHEYENNE MTN   FAIR      75  42  30 S16G28    30.17R
ELLICOTT       NOT AVBL
FALCON           N/A     73  49  42 W7        30.21R
FORT CARSON    MOCLDY    80  45  29 SW16      30.11R
LIMON          FAIR      80  45  28 S8        30.07R
MONUMENT HILL  FAIR      68  52  56 S6        30.22R
CANON CITY     MOCLDY    82  48  30 W8        30.08R
WALSENBURG     FAIR      79  46  31 SW13      30.13R
TRINIDAD       FAIR      81  48  31 W5        30.10R
$$

COZ042>045-048>051-090-091-250300-
...NORTHEAST COLORADO...

CITY           SKY/WX    TMP DP  RH WIND       PRES   REMARKS
GREELEY ARPT   FAIR      84  59  42 CALM      29.97R
AKRON          FAIR      86  50  28 NE9       30.01R
BURLINGTON     FAIR      84  59  42 S12       30.01R
WRAY           NOT AVBL
YUMA           FAIR      81  37  21 SE9       29.96S
STERLING       FAIR      84  52  32 S13       29.93S
HOLYOKE        FAIR      86  54  32 NE13G21   29.97R
FORT MORGAN    FAIR      83  48  29 NE13      29.98R
$$

COZ086-089-092>099-250300-
...SOUTHEAST COLORADO...

CITY           SKY/WX    TMP DP  RH WIND       PRES   REMARKS
PUEBLO         FAIR      88  43  20 E3        29.99R
LA JUNTA       FAIR      90  54  29 S15       29.98R
LAMAR          FAIR      87  58  37 S20G31    29.95R
SPRINGFIELD      N/A     79  60  52 S22G36    30.06R
$$




USA.gov is the U.S. government's official web portal to all federal, state and local government web resources and services.